This is the latest recevied weather packets stored in our database for station/object DK8HC-WX. If no packets are shown the sender has not sent any weather packets the latest 10 day(s).
| Time | Temp. | Humidity | Pressure | Rain* | Wind** | Luminosity | Snow |
|---|---|---|---|---|---|---|---|
| 1777839706 | 18.33° C | 100% | 1012.5 hPa | - | - | - | - |
| 1777838506 | 18.33° C | 100% | 1012.7 hPa | - | - | - | - |
| 1777835506 | 19.44° C | 84% | 1012.2 hPa | - | - | - | - |
| 1777834906 | 19.44° C | 79% | 1012.1 hPa | - | - | - | - |
| 1777833706 | 20° C | 69% | 1012 hPa | - | - | - | - |
| 1777833106 | 20° C | 66% | 1012 hPa | - | - | - | - |
| 1777832506 | 20.56° C | 64% | 1011.9 hPa | - | - | - | - |
| 1777831906 | 20.56° C | 59% | 1011.9 hPa | - | - | - | - |
| 1777831306 | 21.11° C | 55% | 1011.9 hPa | - | - | - | - |
| 1777830706 | 22.22° C | 50% | 1011.7 hPa | - | - | - | - |
| 1777829506 | 22.78° C | 49% | 1011.6 hPa | - | - | - | - |
| 1777828906 | 22.22° C | 51% | 1011.7 hPa | - | - | - | - |
| 1777828306 | 22.22° C | 50% | 1011.6 hPa | - | - | - | - |
| 1777827706 | 22.78° C | 48% | 1011.5 hPa | - | - | - | - |
| 1777827106 | 22.22° C | 46% | 1011.4 hPa | - | - | - | - |
| 1777824106 | 23.33° C | 39% | 1011.6 hPa | - | - | - | - |
| 1777821705 | 26.11° C | 34% | 1011.7 hPa | - | - | - | - |
| 1777820505 | 28.33° C | 32% | 1012.1 hPa | - | - | - | - |
| 1777819905 | 30.56° C | 29% | 1012.2 hPa | - | - | - | - |
| 1777818105 | 31.11° C | 27% | 1012.2 hPa | - | - | - | - |
| 1777815105 | 31.67° C | 26% | 1012.7 hPa | - | - | - | - |
| 1777814505 | 32.22° C | 25% | 1012.9 hPa | - | - | - | - |
| 1777809705 | 28.89° C | 31% | 1013.2 hPa | - | - | - | - |
| 1777808505 | 28.89° C | 34% | 1013.3 hPa | - | - | - | - |
| 1777807905 | 30° C | 36% | 1013.9 hPa | - | - | - | - |
* Rain since midnight (hover to see other rain measurements)
** Current wind speed in m/s (hover to see current wind gust speed)